FW1494 Weather Reports


time (UTC)temp
F
wind
direction
speed
knots
gust
knots
rain 1hr
in
rain 24hr
in
rain mn
in
humidity
%
barometer
mb
20260506034647 66 26 7.8 12.2 0.00 0.13 0.13 93 1027.4
20260506034143 66 28 7.8 12.2 0.00 0.13 0.13 93 1027.4
20260506033643 66 22 9.6 13.9 0.00 0.13 0.13 93 1027.4
20260506033140 67 27 9.6 13.9 0.00 0.13 0.13 92 1027.5
20260506032636 67 57 5.2 12.2 0.00 0.13 0.13 92 1027.5
20260506032137 68 61 6.1 10.4 0.00 0.13 0.13 93 1027.4
20260506031902 68 52 5.2 13.9 0.00 0.13 0.13 93 1027.4
20260506031407 67 34 8.7 13.9 0.00 0.13 0.13 93 1027.5
20260506030627 68 42 5.2 13.0 0.00 0.13 0.13 93 1027.4
20260506030123 67 36 7.8 13.0 0.00 0.14 0.13 93 1027.4
20260506025624 68 51 6.1 11.3 0.00 0.14 0.13 93 1027.5
20260506025124 68 58 7.8 13.0 0.00 0.14 0.13 92 1027.5
20260506024623 68 66 7.0 13.0 0.00 0.14 0.13 92 1027.6
20260506024402 68 54 4.3 12.2 0.00 0.14 0.13 93 1027.5
20260506023619 68 31 7.0 10.4 0.00 0.14 0.13 92 1027.5
20260506023117 68 46 7.0 10.4 0.00 0.14 0.13 92 1027.6
20260506022611 68 44 5.2 13.0 0.00 0.14 0.13 92 1027.6
20260506022107 68 59 5.2 13.9 0.00 0.14 0.13 93 1027.6
20260506021608 68 44 7.8 13.9 0.00 0.14 0.13 93 1027.6
20260506021107 68 35 4.3 11.3 0.00 0.14 0.13 93 1027.6
20260506020558 68 83 7.0 13.9 0.00 0.14 0.13 93 1027.6
20260506020054 68 102 7.0 13.9 0.00 0.14 0.13 94 1027.6
20260506015551 68 51 5.2 11.3 0.00 0.14 0.13 93 1027.6
20260506015049 67 26 7.8 10.4 0.00 0.14 0.13 94 1027.7
20260506014540 67 37 5.2 11.3 0.00 0.14 0.13 94 1027.7
20260506014052 67 54 7.0 12.2 0.00 0.14 0.13 94 1027.8
20260506014042 67 50 7.8 12.2 0.00 0.14 0.13 94 1027.8
20260506013040 67 36 9.6 12.2 0.00 0.14 0.13 93 1027.9
20260506012534 67 27 5.2 13.9 0.00 0.14 0.13 94 1027.9
20260506012030 68 31 9.6 13.9 0.00 0.14 0.13 94 1027.9
20260506011527 67 76 5.2 12.2 0.00 0.14 0.13 94 1027.8
20260506011022 67 30 6.1 11.3 0.00 0.14 0.13 94 1027.8
20260506010517 67 59 7.0 11.3 0.00 0.14 0.13 94 1027.8
20260506010015 67 27 6.1 13.0 0.00 0.14 0.13 94 1027.9
20260506005748 67 23 7.0 13.0 0.00 0.14 0.13 94 1027.9
20260506005244 67 59 7.0 13.0 0.00 0.14 0.13 94 1028.0
20260506004506 67 20 9.6 13.9 0.00 0.14 0.13 94 1028.1
20260506004239 67 38 10.4 13.9 0.00 0.14 0.13 94 1028.1
20260506003458 67 31 9.6 13.9 0.00 0.14 0.13 94 1028.2
20260506002959 67 28 10.4 13.0 0.00 0.14 0.13 94 1028.2
20260506002454 67 34 9.6 13.0 0.00 0.14 0.13 94 1028.3
20260506001950 67 35 7.0 10.4 0.00 0.14 0.13 94 1028.4
20260506001451 67 42 7.0 10.4 0.00 0.14 0.13 94 1028.5
20260506000946 66 38 7.0 13.0 0.00 0.14 0.13 94 1028.7
20260506000446 66 40 7.0 13.0 0.00 0.14 0.13 94 1028.8
20260505235948 66 49 6.1 11.3 0.00 0.14 0.13 94 1028.7
20260505235443 66 53 4.3 11.3 0.01 0.14 0.13 94 1028.8
20260505235218 66 45 5.2 11.3 0.02 0.14 0.13 95 1028.9
20260505234442 65 26 3.5 9.6 0.02 0.14 0.13 96 1028.9
20260505234216 65 57 5.2 9.6 0.03 0.14 0.13 96 1028.9
20260505233442 65 34 4.3 8.7 0.03 0.14 0.13 96 1028.9
20260505232936 64 34 5.2 8.7 0.03 0.14 0.13 97 1028.8
20260505232436 64 44 3.5 7.8 0.03 0.14 0.13 97 1028.9
20260505231929 64 47 3.5 7.8 0.03 0.14 0.13 98 1029.0
20260505231425 63 43 2.6 7.0 0.03 0.14 0.13 97 1029.1
20260505230925 62 61 2.6 9.6 0.03 0.14 0.13 97 1029.1
20260505230421 62 67 3.5 11.3 0.03 0.14 0.13 97 1029.2
20260505230152 62 26 5.2 11.3 0.02 0.13 0.13 97 1029.4
20260505225421 62 17 7.8 11.3 0.02 0.13 0.13 97 1029.4
20260505224913 63 24 7.0 10.4 0.02 0.13 0.12 96 1029.5
20260505224413 63 17 7.0 10.4 0.00 0.11 0.10 95 1029.6
20260505223910 65 17 7.8 9.6 0.00 0.11 0.10 94 1029.6
20260505223405 65 106 2.6 7.8 0.00 0.11 0.10 94 1029.5
20260505223140 65 113 4.3 7.8 0.00 0.11 0.10 93 1029.4
20260505222404 65 115 2.6 6.1 0.00 0.11 0.10 93 1029.4
20260505221901 65 32 3.5 6.1 0.00 0.11 0.10 94 1029.5
20260505221403 65 19 3.5 5.2 0.00 0.11 0.10 95 1029.5
20260505220900 64 38 2.6 5.2 0.00 0.11 0.10 95 1029.5
20260505220409 63 46 5.2 7.8 0.00 0.11 0.10 96 1029.6
20260505220402 64 36 3.5 7.8 0.00 0.11 0.10 96 1029.6
20260505215352 63 50 2.6 7.8 0.00 0.11 0.10 97 1029.6
20260505214852 63 59 3.5 7.8 0.00 0.11 0.10 98 1029.7
20260505214352 62 58 4.3 7.8 0.00 0.11 0.10 98 1029.6
20260505213848 63 22 3.5 7.0 0.00 0.11 0.10 98 1029.6
20260505213348 63 77 1.7 7.0 0.00 0.11 0.10 99 1029.6
20260505212848 63 53 3.5 7.0 0.00 0.11 0.10 98 1029.6
20260505212343 63 53 3.5 7.0 0.00 0.11 0.10 98 1029.6
20260505211846 63 110 1.7 5.2 0.00 0.11 0.10 98 1029.7
20260505211340 63 100 2.6 6.1 0.00 0.11 0.10 98 1029.7
20260505210837 63 101 1.7 7.8 0.00 0.11 0.10 99 1029.8
20260505210342 63 126 3.5 7.8 0.00 0.11 0.10 99 1029.7
20260505205834 63 83 2.6 7.0 0.00 0.11 0.10 99 1029.6
20260505205330 62 107 3.5 7.8 0.00 0.11 0.10 99 1029.6
20260505204831 62 116 3.5 9.6 0.00 0.11 0.10 99 1029.4
20260505204601 62 78 2.6 9.6 0.00 0.11 0.10 99 1029.5
20260505203825 63 100 3.5 7.8 0.00 0.11 0.10 99 1029.5
20260505203322 63 113 3.5 6.1 0.00 0.11 0.10 99 1029.4
20260505202820 63 119 3.5 7.8 0.00 0.11 0.10 99 1029.4
20260505202319 63 94 3.5 7.8 0.00 0.11 0.10 99 1029.4
20260505201819 63 114 2.6 7.8 0.00 0.11 0.10 99 1029.4
20260505201319 63 59 2.6 6.1 0.00 0.11 0.10 99 1029.4
20260505200812 62 126 2.6 6.1 0.00 0.11 0.10 99 1029.2
20260505200308 62 121 2.6 6.1 0.00 0.11 0.10 99 1029.2
20260505195803 62 113 2.6 5.2 0.00 0.11 0.10 99 1029.2
20260505195305 62 126 1.7 3.5 0.01 0.11 0.10 99 1029.2
20260505194802 62 94 0.9 3.5 0.02 0.11 0.10 99 1029.2
20260505194037 61 75 0.9 3.5 0.06 0.11 0.10 99 1029.1
20260505193533 61 95 0.9 2.6 0.06 0.11 0.10 99 1029.1
20260505193025 61 37 0.9 1.7 0.06 0.11 0.10 99 1029.2
20260505192250 61 37 0.9 1.7 0.07 0.11 0.10 99 1029.2
20260505192024 61 37 0.9 1.7 0.08 0.11 0.10 99 1029.2
20260505191243 61 37 0.0 1.7 0.09 0.11 0.10 99 1029.2
20260505190722 61 37 0.9 1.7 0.10 0.11 0.10 99 1029.1
20260505190223 61 37 0.9 2.6 0.10 0.11 0.10 99 1029.0
20260505185955 61 32 0.9 3.5 0.10 0.11 0.10 99 1029.0
20260505185224 61 147 1.7 3.5 0.09 0.10 0.09 99 1029.0
20260505184718 60 155 0.9 1.7 0.08 0.09 0.08 99 1029.1
20260505184445 60 155 0.9 0.9 0.06 0.07 0.06 99 1029.0
20260505183936 60 155 0.0 0.9 0.05 0.06 0.05 99 1029.0
20260505183200 60 155 0.0 0.9 0.05 0.06 0.05 99 1029.0
20260505182655 60 155 0.0 1.7 0.04 0.05 0.04 100 1028.9
20260505182427 59 155 0.9 1.7 0.03 0.04 0.03 99 1028.9
20260505181647 58 155 0.0 1.7 0.02 0.03 0.02 99 1028.9
20260505181147 58 118 0.9 1.7 0.01 0.02 0.01 99 1028.9
20260505180645 59 118 0.0 1.7 0.00 0.01 0.00 99 1028.8
20260505180140 59 118 0.9 1.7 0.00 0.01 0.00 99 1028.8
20260505175629 58 118 0.0 1.7 0.00 0.01 0.00 98 1028.8
20260505175126 59 118 0.0 0.9 0.00 0.01 0.00 99 1028.8
20260505174626 59 118 0.0 1.7 0.00 0.01 0.00 99 1028.8
20260505174105 58 118 0.0 1.7 0.00 0.01 0.00 99 1028.8
20260505173603 58 118 0.0 0.9 0.00 0.01 0.00 98 1028.8
20260505173059 58 118 0.0 0.9 0.00 0.01 0.00 98 1028.9
20260505172600 59 118 0.0 0.9 0.00 0.01 0.00 98 1028.8
20260505172054 59 118 0.0 0.9 0.00 0.01 0.00 98 1028.9
20260505172049 59 118 0.0 0.9 0.00 0.01 0.00 98 1028.8
20260505171043 59 118 0.0 0.9 0.00 0.01 0.00 98 1028.9
20260505170521 59 118 0.0 1.7 0.00 0.01 0.00 98 1029.0
20260505170017 59 118 0.0 2.6 0.00 0.01 0.00 98 1028.9
20260505165518 60 118 0.9 2.6 0.00 0.01 0.00 97 1028.9
20260505165015 60 60 0.9 1.7 0.00 0.01 0.00 97 1028.9
20260505164509 60 60 0.9 1.7 0.00 0.01 0.00 97 1028.9
20260505164013 60 60 0.0 1.7 0.00 0.01 0.00 97 1028.9
20260505163457 60 60 0.9 1.7 0.00 0.01 0.00 97 1029.0
20260505162950 61 60 0.9 1.7 0.00 0.01 0.00 97 1028.9
20260505162446 61 60 0.9 1.7 0.00 0.01 0.00 97 1029.0
20260505161937 61 60 0.0 1.7 0.00 0.01 0.00 97 1029.0
20260505161429 61 60 0.0 1.7 0.00 0.01 0.00 97 1029.0
20260505161154 61 60 0.9 3.5 0.00 0.01 0.00 97 1028.9
20260505160646 61 60 1.7 3.5 0.00 0.01 0.00 97 1029.0
20260505153348 62 94 0.9 3.5 0.00 0.01 0.00 97 1029.0
20260505152848 62 69 0.9 3.5 0.00 0.01 0.00 97 1029.0
20260505152343 62 115 1.7 2.6 0.00 0.01 0.00 97 1029.0
20260505152119 62 86 0.9 3.5 0.00 0.01 0.00 97 1029.1
20260505151336 62 98 0.9 3.5 0.00 0.01 0.00 97 1029.2
20260505150832 61 113 1.7 3.5 0.00 0.01 0.00 97 1029.2
20260505150331 61 96 0.9 2.6 0.00 0.01 0.00 97 1029.2
20260505130209 62 69 1.7 3.5 0.00 0.01 0.00 97 1030.5
20260505124657 62 93 0.9 3.5 0.00 0.01 0.00 96 1030.5
20260505124424 62 82 0.9 2.6 0.00 0.01 0.00 96 1030.5
20260505124143 62 109 0.9 2.6 0.00 0.01 0.00 96 1030.6
20260505123139 62 78 1.7 2.6 0.00 0.01 0.00 96 1030.5
20260505122629 62 53 0.9 2.6 0.00 0.01 0.00 96 1030.6
20260505122124 62 91 0.9 2.6 0.00 0.01 0.00 96 1030.7
20260505121624 62 70 0.9 2.6 0.00 0.01 0.00 97 1030.7
20260505121349 62 93 0.9 2.6 0.00 0.01 0.00 97 1030.7
20260505120613 61 101 0.9 3.5 0.00 0.01 0.00 97 1030.7
20260505120105 61 64 1.7 3.5 0.00 0.01 0.00 97 1030.8
20260505115600 61 56 0.9 3.5 0.00 0.01 0.01 97 1030.7
20260505115100 61 57 0.9 5.2 0.00 0.01 0.01 97 1030.7
20260505114820 61 92 1.7 6.1 0.00 0.01 0.01 97 1030.6
20260505114048 61 109 1.7 6.1 0.00 0.01 0.01 97 1030.7
20260505113540 61 101 0.9 5.2 0.00 0.01 0.01 97 1030.7
20260505113038 61 115 0.9 6.1 0.00 0.01 0.01 97 1030.7
20260505112537 61 112 2.6 7.0 0.00 0.01 0.01 97 1030.7
20260505112034 61 101 1.7 7.8 0.00 0.01 0.01 97 1030.7
20260505111529 61 123 1.7 7.8 0.00 0.01 0.01 97 1030.8
20260505111029 61 58 1.7 6.1 0.00 0.01 0.01 97 1030.8
20260505110533 61 106 1.7 6.1 0.00 0.01 0.01 97 1030.8
20260505102006 61 89 0.9 4.3 0.00 0.01 0.01 98 1031.3
20260505101506 61 74 1.7 4.3 0.00 0.01 0.01 98 1031.3
20260505101007 61 64 1.7 4.3 0.00 0.01 0.01 98 1031.3
20260505100508 60 40 1.7 3.5 0.00 0.01 0.01 98 1031.4
20260505100007 60 103 0.9 2.6 0.00 0.01 0.01 98 1031.3
20260505095516 60 107 0.9 2.6 0.00 0.01 0.01 98 1031.2
20260505095508 60 107 0.0 2.6 0.00 0.01 0.01 98 1031.3
20260505094457 60 89 0.9 1.7 0.00 0.01 0.01 98 1031.2
20260505093950 60 89 0.0 1.7 0.00 0.01 0.01 98 1031.2
20260505093441 60 89 0.0 0.9 0.00 0.01 0.01 98 1031.2
20260505092943 60 89 0.0 0.9 0.00 0.01 0.01 98 1031.3
20260505092440 60 89 0.0 1.7 0.00 0.01 0.01 98 1031.3
20260505091940 60 89 0.9 1.7 0.00 0.01 0.01 98 1031.2
20260505091436 60 89 0.0 1.7 0.00 0.01 0.01 98 1031.2
20260505091158 60 89 0.0 3.5 0.00 0.01 0.01 98 1031.2
20260505090430 60 89 0.9 3.5 0.00 0.01 0.01 97 1031.2
20260505085923 60 45 0.0 1.7 0.00 0.01 0.01 97 1031.1
20260505085413 60 45 0.0 1.7 0.00 0.01 0.01 97 1031.1
20260505084903 60 45 0.9 1.7 0.00 0.01 0.01 97 1031.1
20260505084359 60 76 0.9 1.7 0.00 0.01 0.01 97 1031.1
20260505083859 60 92 0.9 2.6 0.00 0.01 0.01 97 1031.0
20260505083355 60 91 0.9 3.5 0.00 0.01 0.01 97 1031.0
20260505082857 60 75 0.9 3.5 0.00 0.01 0.01 97 1031.0
20260505082354 60 44 0.9 4.3 0.00 0.01 0.01 97 1031.0
20260505081846 60 64 1.7 4.3 0.00 0.01 0.01 97 1031.0
20260505081336 60 90 0.9 6.1 0.00 0.01 0.01 97 1031.1
20260505080827 60 55 0.9 6.1 0.00 0.01 0.01 97 1031.0
20260505080322 60 41 0.9 3.5 0.00 0.01 0.01 97 1031.1
20260505080105 61 57 1.7 6.1 0.00 0.01 0.01 96 1031.1
20260505075319 61 55 2.6 6.1 0.00 0.01 0.01 97 1031.0
20260505074813 61 36 2.6 6.1 0.00 0.01 0.01 97 1031.0
20260505074312 61 79 1.7 7.8 0.00 0.01 0.01 96 1030.9
20260505073815 61 53 3.5 7.8 0.00 0.01 0.01 96 1031.0
20260505072806 61 33 3.5 5.2 0.00 0.01 0.01 96 1030.9
20260505072302 61 40 2.6 5.2 0.00 0.01 0.01 96 1030.8
20260505071758 61 115 3.5 6.1 0.00 0.01 0.01 96 1030.8
20260505071254 61 98 3.5 7.0 0.00 0.01 0.01 96 1030.8
20260505070749 61 98 3.5 7.0 0.00 0.01 0.01 96 1030.6
20260505070246 61 88 2.6 6.1 0.00 0.01 0.01 96 1030.6
20260505065741 61 89 3.5 7.8 0.00 0.01 0.01 96 1030.7
20260505065238 61 94 3.5 7.8 0.00 0.01 0.01 96 1030.7
20260505064738 61 99 2.6 7.8 0.00 0.01 0.01 96 1030.7
20260505064237 60 129 3.5 7.8 0.00 0.01 0.01 96 1030.6
20260505063738 60 90 3.5 7.0 0.00 0.01 0.01 97 1030.5
20260505063234 60 54 3.5 6.1 0.00 0.01 0.01 97 1030.5
20260505063003 60 99 2.6 6.1 0.00 0.01 0.01 96 1030.5
20260505062510 61 82 1.7 5.2 0.00 0.01 0.01 96 1030.5
20260505062227 61 112 2.6 5.2 0.00 0.01 0.01 96 1030.4
20260505061219 61 105 2.6 7.0 0.00 0.01 0.01 96 1030.5
20260505060723 61 98 3.5 7.0 0.00 0.01 0.01 96 1030.5
20260505060219 61 88 1.7 6.1 0.00 0.01 0.01 96 1030.5
20260505055717 61 63 2.6 6.1 0.00 0.01 0.01 96 1030.5
20260505055212 61 106 2.6 5.2 0.00 0.01 0.01 96 1030.5
20260505054710 61 93 1.7 6.1 0.00 0.01 0.01 96 1030.5
20260505054441 61 95 3.5 7.8 0.00 0.01 0.01 95 1030.5
20260505053701 61 97 1.7 7.8 0.00 0.01 0.01 95 1030.5
20260505053201 61 90 1.7 7.0 0.00 0.01 0.01 95 1030.5
20260505052702 62 92 0.9 4.3 0.00 0.01 0.01 95 1030.5
20260505052157 62 46 2.6 7.0 0.00 0.01 0.01 95 1030.7
20260505051658 62 92 3.5 7.8 0.00 0.01 0.01 95 1030.7
20260505051155 62 88 2.6 8.7 0.00 0.01 0.01 94 1030.8
20260505050924 62 102 3.5 8.7 0.00 0.01 0.01 94 1030.8
20260505050150 62 125 2.6 8.7 0.00 0.01 0.01 94 1030.9
20260505041627 62 86 3.5 7.8 0.00 0.01 0.01 95 1030.8
20260505041123 62 74 3.5 7.8 0.00 0.01 0.01 95 1030.8
20260505040621 62 48 3.5 9.6 0.00 0.01 0.01 96 1030.9
20260505040402 62 231 2.6 9.6 0.01 0.01 0.01 96 1030.9
20260505040357 62 98 5.2 9.6 0.01 0.01 0.01 95 1030.8
20260505035110 62 101 2.6 8.7 0.01 0.01 0.01 96 1030.8